Vorticity
nan nan nan nan nan nan nan nan nan nan nan nan nan nan nan nan nan nan nan nan nan nan nan nan nan nan nan nan nan nan nan nan nan nan nan nan nan nan nan nan nan nan nan
nan 10 11 11 12 12 11 10 9 8 7 8 10 9 10 11 11 12 13 14 14 13 12 12 11 11 12 8 10 10 9 13 15 8 10 12 11 9 10 10 5 9 nan
nan 10 9 10 10 10 11 12 12 11 9 10 12 11 10 10 10 12 12 12 15 15 13 12 12 9 7 10 10 7 8 10 9 8 11 12 12 12 8 9 10 9 nan
nan 8 9 9 10 11 10 11 11 12 12 12 12 13 11 11 11 10 12 11 12 14 16 14 12 9 8 7 7 7 6 8 10 9 10 11 11 11 9 10 9 10 nan
nan 8 8 7 7 9 11 11 10 10 10 11 13 13 11 11 12 12 12 11 10 11 14 16 15 16 14 10 11 12 9 8 8 8 8 9 12 14 10 8 10 10 nan
nan 7 7 7 8 7 9 9 9 10 11 10 11 11 11 11 13 11 8 11 10 8 8 12 17 16 13 13 14 13 10 10 8 7 12 12 10 8 10 10 9 8 nan
nan 9 9 9 8 7 8 9 10 10 11 11 12 12 11 15 17 12 8 8 11 9 8 8 10 12 12 10 9 9 14 12 9 11 12 10 11 10 10 11 9 7 nan
nan 11 12 12 8 8 10 11 12 11 10 11 12 12 14 18 17 14 9 5 11 13 12 9 9 10 11 12 8 8 10 11 13 17 16 15 17 15 8 8 11 7 nan
nan 13 14 11 11 11 12 12 12 12 12 11 11 13 14 17 16 12 8 8 11 10 10 11 11 14 16 8 6 8 8 11 15 13 12 16 16 18 14 10 10 8 nan
nan 9 10 13 14 12 12 14 12 11 11 11 11 13 14 16 18 10 4 8 10 8 11 16 12 15 12 6 7 7 8 9 9 7 7 8 9 11 15 15 10 7 nan
nan 12 13 13 13 12 11 13 12 11 11 10 12 12 15 14 18 14 4 6 9 10 10 10 15 19 11 8 6 12 12 10 6 6 7 6 7 7 9 12 13 16 nan
nan 16 13 10 11 11 13 12 11 10 11 12 12 11 12 15 18 15 8 11 10 8 8 13 21 16 10 6 14 18 7 4 6 8 9 9 8 9 10 9 10 13 nan
nan 13 10 12 13 11 13 10 10 13 12 12 12 11 11 12 17 19 12 8 9 9 17 19 15 7 3 12 17 3 1 5 10 10 10 10 10 9 9 8 8 8 nan
nan 12 12 14 14 14 13 11 11 11 11 12 11 11 12 11 11 12 12 10 9 12 15 10 7 5 6 10 5 3 8 12 10 10 10 9 10 9 8 8 7 6 nan
nan 14 13 14 13 14 11 10 10 11 10 10 10 12 11 11 16 15 11 10 11 14 5 7 8 9 9 7 8 9 10 11 11 11 10 9 9 9 9 8 8 8 nan
nan 14 13 13 12 10 10 13 10 11 14 13 13 10 10 19 21 15 13 16 18 8 3 8 9 10 10 10 10 9 10 10 10 11 10 10 9 9 9 9 8 8 nan
nan 13 13 11 11 11 11 10 13 11 11 18 20 17 14 18 19 15 14 15 5 -2 6 10 11 11 11 11 10 10 10 11 10 10 11 10 9 10 9 8 9 9 nan
nan 12 12 12 12 11 11 12 13 11 12 14 17 21 23 21 15 15 11 0 -0 6 11 11 11 11 11 11 10 11 10 10 10 10 10 9 9 9 9 9 9 9 nan
nan 12 12 11 11 13 13 12 12 13 13 13 14 18 22 18 13 12 1 -1 9 11 11 11 11 11 11 10 10 11 11 10 9 9 9 9 10 9 9 9 8 8 nan
nan 11 11 12 12 12 12 12 12 12 12 12 14 14 14 11 8 5 6 11 11 11 12 11 11 11 11 10 10 11 12 10 9 9 10 10 9 10 10 9 8 11 nan
nan 11 12 12 12 11 11 11 12 12 12 12 12 14 13 9 9 10 11 11 12 12 12 11 10 10 10 11 11 11 11 11 10 9 10 11 10 9 9 10 10 11 nan
nan 11 12 12 12 12 11 11 12 12 12 12 10 10 10 11 11 11 12 11 11 11 11 12 11 11 12 12 10 11 11 10 11 11 10 9 10 10 11 10 9 10 nan
nan 12 11 12 12 12 11 11 11 11 11 11 10 8 8 11 11 11 11 11 11 11 11 12 12 12 11 12 12 12 11 12 11 11 10 10 9 11 10 10 12 10 nan
nan 13 12 12 12 11 12 11 11 11 11 10 10 9 10 11 12 11 11 10 11 11 11 12 13 13 10 11 11 12 13 13 12 14 11 11 11 10 10 12 10 10 nan
nan 13 13 13 12 12 12 12 11 10 10 10 11 11 11 11 11 11 10 10 11 11 11 11 14 15 13 11 11 12 13 14 12 11 11 12 12 10 10 9 9 11 nan
nan nan nan nan nan nan nan nan nan nan nan nan nan nan nan nan nan nan nan nan nan nan nan nan nan nan nan nan nan nan nan nan nan nan nan nan nan nan nan nan nan nan nan
CAPE
67 133 164 246 322 332 376 455 464 443 386 251 94 5 8 4 5 6 1 0 0 0 0 0 0 0 0 0 0 0 0 0 0 0 2 1 5 1 0 10 0 0 0
64 191 377 503 531 557 588 607 626 643 583 523 274 18 4 1 1 2 0 0 0 0 0 0 0 0 0 0 0 0 16 0 0 0 0 4 9 2 0 13 0 0 0
6 53 169 302 393 473 539 736 763 799 807 713 367 38 2 1 1 1 0 0 0 0 0 0 0 1 0 0 3 14 5 2 0 1 4 3 5 2 13 7 1 0 1
0 0 2 4 67 324 589 818 876 853 771 649 316 57 3 1 1 1 2 1 0 0 0 0 0 0 0 3 3 2 0 0 1 1 2 2 4 10 14 9 7 6 0
0 0 1 5 18 41 418 699 675 672 672 496 241 15 3 2 1 0 0 1 0 0 0 0 0 0 0 3 0 0 0 0 0 0 0 0 3 2 4 8 6 5 2
0 0 0 0 0 3 42 403 447 459 506 470 228 64 4 1 0 0 0 0 0 0 0 0 0 0 0 0 0 0 0 0 0 0 1 2 4 2 5 7 10 11 8
2 0 0 0 0 14 13 55 265 410 491 526 265 71 13 2 0 0 0 0 0 0 0 0 0 0 0 0 0 0 0 0 0 0 0 1 8 11 11 11 8 5 6
15 11 4 2 5 14 59 113 248 395 466 493 359 87 8 2 0 0 0 0 0 0 0 0 0 0 0 0 0 0 0 0 0 1 3 9 9 14 16 6 11 9 4
42 43 46 82 81 94 143 243 294 257 379 367 210 8 8 1 0 0 0 0 0 0 0 0 0 0 2 8 1 3 4 3 3 1 0 0 0 0 3 12 17 3 9
57 94 97 105 120 209 273 136 3 4 3 3 4 12 1 0 0 0 0 0 0 0 0 0 0 0 0 0 3 4 5 6 6 6 4 0 0 0 0 2 12 5 13
26 21 20 43 77 93 17 6 6 9 6 4 0 4 5 1 0 0 1 0 0 0 0 1 0 0 2 1 0 0 4 9 6 8 11 16 10 2 3 6 1 12 13
38 66 1 2 3 0 5 9 6 8 7 2 3 2 6 1 0 0 2 0 0 0 0 1 1 4 0 0 0 0 0 2 10 11 14 14 13 13 13 10 12 5 1
70 6 2 4 2 4 9 5 6 5 8 4 3 4 6 3 0 0 3 1 0 0 0 0 6 6 2 0 1 1 0 9 14 11 12 16 17 18 14 12 7 2 2
1 2 2 0 1 2 12 5 5 4 2 1 1 2 3 2 1 0 1 1 2 1 0 4 7 0 1 6 8 4 8 9 9 9 13 16 17 16 13 8 7 9 10
39 0 1 1 1 2 1 4 4 2 3 2 2 2 1 2 1 0 1 5 3 2 5 8 11 12 10 8 11 6 5 4 5 9 11 9 8 7 10 11 11 12 12
11 3 8 5 3 3 5 4 0 0 0 0 0 0 0 0 0 5 6 5 3 2 10 21 21 20 11 6 4 2 0 0 0 1 4 1 1 5 12 15 15 14 16
3 3 7 4 6 6 9 18 12 8 1 0 0 0 1 1 4 7 9 4 3 4 16 18 22 24 14 5 1 0 0 0 0 1 3 5 7 8 13 14 14 16 18
5 0 5 6 10 20 33 34 19 36 23 20 6 3 2 3 6 9 5 6 20 14 12 21 21 16 13 6 3 0 1 4 3 5 9 13 16 16 18 17 18 19 23
7 6 8 13 12 6 16 23 23 19 18 19 21 8 2 3 6 5 6 23 34 21 17 15 19 15 14 11 20 19 15 9 12 12 18 18 20 20 19 18 19 2 6
6 1 1 7 1 13 14 13 13 17 18 23 28 24 21 16 18 20 24 20 23 20 23 22 17 16 28 30 40 37 19 20 19 21 24 23 22 22 22 16 17 20 19
7 6 0 8 1 7 12 14 14 20 21 22 28 33 8 32 23 18 14 13 10 10 12 14 17 26 31 31 18 18 21 22 23 26 20 26 24 23 14 16 18 18 15
11 8 7 9 3 3 11 12 17 17 16 20 25 17 2 22 18 17 17 18 23 17 24 27 32 32 38 36 29 44 21 22 20 19 20 13 13 18 20 23 22 18 12
16 13 12 9 10 1 4 8 15 18 16 17 13 14 18 17 14 13 13 12 10 16 25 33 38 26 21 27 23 17 14 18 18 19 18 19 21 24 24 20 12 7 6
22 35 14 11 11 7 4 14 9 8 12 14 23 24 17 16 15 12 6 10 14 15 26 23 13 10 10 19 20 20 18 16 15 18 12 18 15 5 5 5 4 3 5
29 38 27 17 17 17 18 13 5 21 16 23 20 12 9 13 11 10 8 12 10 13 9 10 10 6 4 5 10 11 0 2 5 2 2 0 0 0 1 2 3 4 3
35 33 30 22 20 20 16 17 16 14 16 5 4 5 7 5 7 10 14 12 10 12 10 12 9 3 4 8 8 0 0 0 0 0 1 1 1 2 3 3 1 4 3